| time (UTC) | temp F | wind direction | speed knots | gust knots | rain 1hr in | rain 24hr in | rain mn in | humidity % | barometer mb |
| 20260510020048 | 62 | 295 | 0.0 | 1.7 | 0.00 | 0.00 | 0.00 | 52 | 1011.3 |
| 20260510015047 | 62 | 286 | 0.9 | 2.6 | 0.00 | 0.00 | 0.00 | 51 | 1011.2 |
| 20260510014047 | 62 | 229 | 0.0 | 1.7 | 0.00 | 0.00 | 0.00 | 51 | 1010.9 |
| 20260510013047 | 63 | 279 | 0.9 | 2.6 | 0.00 | 0.00 | 0.00 | 49 | 1010.9 |
| 20260510012046 | 64 | 236 | 0.0 | 1.7 | 0.00 | 0.00 | 0.00 | 45 | 1010.7 |
| 20260510011048 | 65 | 180 | 0.0 | 0.9 | 0.00 | 0.00 | 0.00 | 45 | 1010.4 |
| 20260510010050 | 65 | 288 | 0.9 | 1.7 | 0.00 | 0.00 | 0.00 | 44 | 1010.3 |
| 20260510005047 | 64 | 302 | 0.0 | 1.7 | 0.00 | 0.00 | 0.00 | 45 | 1010.1 |
| 20260510004048 | 64 | 180 | 0.0 | 1.7 | 0.00 | 0.00 | 0.00 | 45 | 1010.0 |
| 20260510003047 | 65 | 255 | 0.0 | 1.7 | 0.00 | 0.00 | 0.00 | 44 | 1009.7 |
| 20260510002048 | 66 | 249 | 0.9 | 1.7 | 0.00 | 0.00 | 0.00 | 44 | 1009.5 |
| 20260510001048 | 67 | 285 | 0.0 | 1.7 | 0.00 | 0.00 | 0.00 | 40 | 1009.3 |
| 20260510000047 | 69 | 287 | 0.0 | 3.5 | 0.00 | 0.00 | 0.00 | 39 | 1009.2 |
| 20260509235048 | 69 | 313 | 0.0 | 2.6 | 0.00 | 0.00 | 0.00 | 38 | 1009.2 |
| 20260509234048 | 71 | 308 | 0.9 | 4.3 | 0.00 | 0.00 | 0.00 | 37 | 1009.1 |
| 20260509233047 | 71 | 285 | 1.7 | 3.5 | 0.00 | 0.00 | 0.00 | 36 | 1009.1 |
| 20260509232050 | 73 | 305 | 0.9 | 3.5 | 0.00 | 0.00 | 0.00 | 43 | 1009.2 |
| 20260509231048 | 71 | 288 | 1.7 | 6.1 | 0.00 | 0.00 | 0.00 | 44 | 1009.1 |
| 20260509230047 | 71 | 246 | 1.7 | 6.1 | 0.00 | 0.00 | 0.00 | 45 | 1009.0 |
| 20260509225048 | 73 | 274 | 0.0 | 3.5 | 0.00 | 0.00 | 0.00 | 43 | 1008.9 |
| 20260509224047 | 72 | 220 | 1.7 | 5.2 | 0.00 | 0.00 | 0.00 | 43 | 1009.0 |
| 20260509223047 | 72 | 304 | 1.7 | 5.2 | 0.00 | 0.00 | 0.00 | 43 | 1009.0 |
| 20260509222047 | 72 | 242 | 2.6 | 7.8 | 0.00 | 0.00 | 0.00 | 43 | 1009.0 |
| 20260509221048 | 73 | 193 | 3.5 | 7.0 | 0.00 | 0.00 | 0.00 | 41 | 1008.9 |
| 20260509220047 | 73 | 248 | 2.6 | 6.1 | 0.00 | 0.00 | 0.00 | 33 | 1008.8 |
| 20260509215047 | 73 | 214 | 1.7 | 7.8 | 0.00 | 0.00 | 0.00 | 33 | 1008.8 |
| 20260509214048 | 73 | 241 | 2.6 | 8.7 | 0.00 | 0.00 | 0.00 | 33 | 1008.8 |
| 20260509213047 | 73 | 210 | 2.6 | 8.7 | 0.00 | 0.00 | 0.00 | 40 | 1008.7 |
| 20260509212049 | 73 | 215 | 3.5 | 8.7 | 0.00 | 0.00 | 0.00 | 37 | 1008.6 |
| 20260509211047 | 73 | 223 | 3.5 | 10.4 | 0.00 | 0.00 | 0.00 | 35 | 1008.4 |
| 20260509210049 | 73 | 221 | 4.3 | 9.6 | 0.00 | 0.00 | 0.00 | 34 | 1008.5 |
| 20260509205048 | 72 | 238 | 3.5 | 10.4 | 0.00 | 0.00 | 0.00 | 40 | 1008.4 |
| 20260509204047 | 72 | 187 | 7.0 | 11.3 | 0.00 | 0.00 | 0.00 | 41 | 1008.4 |
| 20260509203047 | 73 | 216 | 5.2 | 9.6 | 0.00 | 0.00 | 0.00 | 40 | 1008.3 |
| 20260509202047 | 74 | 193 | 2.6 | 8.7 | 0.00 | 0.00 | 0.00 | 37 | 1008.2 |
| 20260509201048 | 76 | 177 | 7.0 | 13.0 | 0.00 | 0.00 | 0.00 | 36 | 1008.1 |
| 20260509200047 | 74 | 188 | 7.0 | 13.9 | 0.00 | 0.00 | 0.00 | 40 | 1008.2 |
| 20260509195047 | 74 | 169 | 4.3 | 13.9 | 0.00 | 0.00 | 0.00 | 41 | 1008.3 |
| 20260509194047 | 72 | 177 | 4.3 | 11.3 | 0.00 | 0.00 | 0.00 | 40 | 1008.5 |
| 20260509193047 | 75 | 161 | 6.1 | 13.9 | 0.00 | 0.00 | 0.00 | 37 | 1008.6 |
| 20260509192047 | 76 | 183 | 7.0 | 16.5 | 0.00 | 0.00 | 0.00 | 37 | 1008.7 |
| 20260509191047 | 74 | 215 | 5.2 | 12.2 | 0.00 | 0.00 | 0.00 | 37 | 1008.8 |
| 20260509190047 | 76 | 200 | 3.5 | 12.2 | 0.00 | 0.00 | 0.00 | 36 | 1008.9 |
| 20260509185047 | 73 | 188 | 9.6 | 17.4 | 0.00 | 0.00 | 0.00 | 39 | 1009.0 |
| 20260509184048 | 73 | 244 | 4.3 | 13.0 | 0.00 | 0.00 | 0.00 | 36 | 1009.1 |
| 20260509183047 | 72 | 0.0 | 13.0 | 0.00 | 0.00 | 0.00 | 40 | 1009.1 | |
| 20260509182049 | 73 | 198 | 4.3 | 15.6 | 0.00 | 0.00 | 0.00 | 39 | 1009.3 |
| 20260509181048 | 71 | 147 | 6.1 | 11.3 | 0.00 | 0.00 | 0.00 | 41 | 1009.4 |
| 20260509180047 | 71 | 227 | 2.6 | 8.7 | 0.00 | 0.00 | 0.00 | 41 | 1009.5 |
| 20260509175047 | 70 | 186 | 7.0 | 12.2 | 0.00 | 0.00 | 0.00 | 44 | 1009.7 |
| 20260509174047 | 69 | 219 | 4.3 | 11.3 | 0.00 | 0.00 | 0.00 | 47 | 1009.9 |
| 20260509173047 | 68 | 179 | 6.1 | 12.2 | 0.00 | 0.00 | 0.00 | 49 | 1010.0 |
| 20260509172047 | 67 | 173 | 7.0 | 11.3 | 0.00 | 0.00 | 0.00 | 49 | 1009.9 |
| 20260509171047 | 67 | 165 | 4.3 | 11.3 | 0.00 | 0.00 | 0.00 | 50 | 1010.0 |
| 20260509170047 | 68 | 207 | 3.5 | 7.8 | 0.00 | 0.00 | 0.00 | 48 | 1010.2 |
| 20260509165047 | 68 | 177 | 4.3 | 7.8 | 0.00 | 0.00 | 0.00 | 48 | 1010.3 |
| 20260509164047 | 68 | 224 | 2.6 | 11.3 | 0.00 | 0.00 | 0.00 | 50 | 1010.3 |
| 20260509163047 | 68 | 196 | 2.6 | 7.0 | 0.00 | 0.00 | 0.00 | 47 | 1010.4 |
| 20260509162047 | 68 | 206 | 5.2 | 9.6 | 0.00 | 0.00 | 0.00 | 48 | 1010.3 |
| 20260509161048 | 66 | 193 | 3.5 | 11.3 | 0.00 | 0.00 | 0.00 | 52 | 1010.3 |
| 20260509160048 | 67 | 177 | 6.1 | 9.6 | 0.00 | 0.00 | 0.00 | 50 | 1010.3 |
| 20260509155048 | 66 | 173 | 4.3 | 9.6 | 0.00 | 0.00 | 0.00 | 51 | 1010.3 |
| 20260509154047 | 65 | 165 | 6.1 | 8.7 | 0.00 | 0.00 | 0.00 | 52 | 1010.4 |
| 20260509153048 | 66 | 219 | 3.5 | 10.4 | 0.00 | 0.00 | 0.00 | 50 | 1010.3 |
| 20260509152049 | 67 | 166 | 5.2 | 8.7 | 0.00 | 0.00 | 0.00 | 49 | 1010.3 |
| 20260509151048 | 66 | 192 | 5.2 | 8.7 | 0.00 | 0.00 | 0.00 | 49 | 1010.1 |
| 20260509150049 | 67 | 210 | 1.7 | 7.0 | 0.00 | 0.00 | 0.00 | 50 | 1010.3 |
| 20260509145047 | 67 | 189 | 3.5 | 8.7 | 0.00 | 0.00 | 0.00 | 51 | 1010.2 |
| 20260509144047 | 0 | 0.0 | 0.0 | 0.00 | 0.00 | 0.00 | 1010.3 | ||
| 20260509143050 | 0 | 0.0 | 0.0 | 0.00 | 0.00 | 0.00 | 1010.2 | ||
| 20260509142047 | 0 | 0.0 | 0.0 | 0.00 | 0.00 | 0.00 | 1010.2 | ||
| 20260509141047 | 63 | 0.0 | 4.3 | 0.00 | 0.00 | 0.00 | 57 | 1010.7 | |
| 20260509140047 | 62 | 191 | 4.3 | 9.6 | 0.00 | 0.00 | 0.00 | 56 | 1010.9 |
| 20260509135047 | 61 | 196 | 4.3 | 11.3 | 0.00 | 0.00 | 0.00 | 56 | 1011.1 |
| 20260509134048 | 62 | 181 | 3.5 | 7.0 | 0.00 | 0.00 | 0.00 | 55 | 1011.1 |
| 20260509133047 | 60 | 205 | 3.5 | 6.1 | 0.00 | 0.00 | 0.00 | 58 | 1011.4 |
| 20260509132048 | 59 | 192 | 4.3 | 8.7 | 0.00 | 0.00 | 0.00 | 58 | 1011.4 |
| 20260509131048 | 59 | 202 | 3.5 | 8.7 | 0.00 | 0.00 | 0.00 | 58 | 1011.4 |
| 20260509130047 | 58 | 188 | 4.3 | 11.3 | 0.00 | 0.00 | 0.00 | 58 | 1011.3 |
| 20260509125050 | 58 | 177 | 3.5 | 7.8 | 0.00 | 0.00 | 0.00 | 57 | 1011.3 |
| 20260509124047 | 58 | 175 | 5.2 | 9.6 | 0.00 | 0.00 | 0.00 | 58 | 1011.1 |
| 20260509123048 | 57 | 193 | 5.2 | 8.7 | 0.00 | 0.00 | 0.00 | 58 | 1011.2 |
| 20260509122047 | 57 | 191 | 3.5 | 7.0 | 0.00 | 0.00 | 0.00 | 58 | 1011.2 |
| 20260509121049 | 57 | 200 | 4.3 | 7.8 | 0.00 | 0.00 | 0.00 | 58 | 1011.4 |
| 20260509120047 | 56 | 203 | 3.5 | 5.2 | 0.00 | 0.00 | 0.00 | 59 | 1011.4 |
| 20260509115047 | 56 | 208 | 2.6 | 5.2 | 0.00 | 0.00 | 0.00 | 59 | 1011.5 |
| 20260509114047 | 56 | 202 | 1.7 | 4.3 | 0.00 | 0.00 | 0.00 | 58 | 1011.5 |
| 20260509113050 | 55 | 183 | 2.6 | 4.3 | 0.00 | 0.00 | 0.00 | 57 | 1011.3 |
| 20260509112047 | 55 | 236 | 0.9 | 3.5 | 0.00 | 0.00 | 0.00 | 58 | 1011.4 |
| 20260509111047 | 55 | 228 | 0.9 | 3.5 | 0.00 | 0.00 | 0.00 | 58 | 1011.3 |
| 20260509110048 | 55 | 206 | 1.7 | 8.7 | 0.00 | 0.00 | 0.00 | 57 | 1011.1 |
| 20260509105047 | 55 | 183 | 3.5 | 7.8 | 0.00 | 0.00 | 0.00 | 56 | 1011.1 |
| 20260509104047 | 55 | 191 | 3.5 | 6.1 | 0.00 | 0.00 | 0.00 | 56 | 1011.3 |
| 20260509103049 | 55 | 189 | 3.5 | 6.1 | 0.00 | 0.00 | 0.00 | 56 | 1011.2 |
| 20260509102048 | 54 | 184 | 2.6 | 7.0 | 0.00 | 0.00 | 0.00 | 56 | 1011.3 |
| 20260509101047 | 54 | 193 | 3.5 | 6.1 | 0.00 | 0.00 | 0.00 | 56 | 1011.3 |
| 20260509100048 | 55 | 200 | 1.7 | 8.7 | 0.00 | 0.00 | 0.00 | 55 | 1011.2 |
| 20260509095048 | 55 | 192 | 4.3 | 7.8 | 0.00 | 0.00 | 0.00 | 55 | 1011.4 |
| 20260509094048 | 55 | 181 | 4.3 | 8.7 | 0.00 | 0.00 | 0.00 | 54 | 1011.3 |
| 20260509093049 | 55 | 174 | 4.3 | 6.1 | 0.00 | 0.00 | 0.00 | 54 | 1011.4 |
| 20260509092047 | 55 | 176 | 3.5 | 6.1 | 0.00 | 0.00 | 0.00 | 54 | 1011.4 |
| 20260509091050 | 55 | 194 | 3.5 | 7.8 | 0.00 | 0.00 | 0.00 | 53 | 1011.6 |
| 20260509090047 | 55 | 185 | 4.3 | 8.7 | 0.00 | 0.00 | 0.00 | 53 | 1011.4 |
| 20260509085048 | 55 | 196 | 3.5 | 6.1 | 0.00 | 0.00 | 0.00 | 53 | 1011.6 |
| 20260509084047 | 55 | 187 | 3.5 | 6.1 | 0.00 | 0.00 | 0.00 | 53 | 1011.6 |
| 20260509083050 | 56 | 200 | 2.6 | 7.8 | 0.00 | 0.00 | 0.00 | 52 | 1011.6 |
| 20260509082047 | 56 | 181 | 2.6 | 6.1 | 0.00 | 0.00 | 0.00 | 52 | 1011.7 |
| 20260509081047 | 56 | 205 | 2.6 | 5.2 | 0.00 | 0.00 | 0.00 | 52 | 1011.7 |
| 20260509080048 | 56 | 182 | 3.5 | 6.1 | 0.00 | 0.00 | 0.00 | 52 | 1011.8 |
| 20260509075047 | 55 | 187 | 2.6 | 5.2 | 0.00 | 0.00 | 0.00 | 53 | 1011.9 |
| 20260509074049 | 55 | 185 | 3.5 | 6.1 | 0.00 | 0.00 | 0.00 | 53 | 1012.0 |
| 20260509073047 | 55 | 176 | 4.3 | 7.8 | 0.00 | 0.00 | 0.00 | 53 | 1012.1 |
| 20260509072047 | 55 | 173 | 3.5 | 6.1 | 0.00 | 0.00 | 0.00 | 53 | 1012.2 |
| 20260509071047 | 54 | 201 | 1.7 | 3.5 | 0.00 | 0.00 | 0.00 | 55 | 1012.2 |
| 20260509070048 | 54 | 207 | 0.9 | 3.5 | 0.00 | 0.00 | 0.00 | 55 | 1012.3 |
| 20260509065047 | 55 | 199 | 1.7 | 4.3 | 0.00 | 0.00 | 0.00 | 54 | 1012.2 |
| 20260509064048 | 55 | 191 | 1.7 | 4.3 | 0.00 | 0.00 | 0.00 | 54 | 1012.3 |
| 20260509063047 | 55 | 192 | 2.6 | 5.2 | 0.00 | 0.00 | 0.00 | 53 | 1012.5 |
| 20260509062049 | 55 | 193 | 2.6 | 5.2 | 0.00 | 0.00 | 0.00 | 52 | 1012.6 |
| 20260509061048 | 55 | 173 | 3.5 | 6.1 | 0.00 | 0.00 | 0.00 | 52 | 1012.6 |
| 20260509060048 | 55 | 186 | 2.6 | 4.3 | 0.00 | 0.00 | 0.00 | 53 | 1012.6 |
| 20260509055048 | 55 | 192 | 1.7 | 6.1 | 0.00 | 0.00 | 0.00 | 53 | 1012.8 |
| 20260509054048 | 55 | 187 | 4.3 | 7.0 | 0.00 | 0.00 | 0.00 | 52 | 1012.8 |
| 20260509053049 | 55 | 183 | 3.5 | 7.8 | 0.00 | 0.00 | 0.00 | 54 | 1013.0 |
| 20260509052047 | 55 | 183 | 4.3 | 7.8 | 0.00 | 0.00 | 0.00 | 53 | 1012.9 |
| 20260509051047 | 55 | 196 | 3.5 | 5.2 | 0.00 | 0.00 | 0.00 | 53 | 1012.9 |
| 20260509050047 | 56 | 200 | 2.6 | 6.1 | 0.00 | 0.00 | 0.00 | 51 | 1013.0 |
| 20260509045047 | 56 | 191 | 3.5 | 7.0 | 0.00 | 0.00 | 0.00 | 52 | 1012.9 |
| 20260509044047 | 56 | 187 | 3.5 | 8.7 | 0.00 | 0.00 | 0.00 | 52 | 1012.9 |
| 20260509043048 | 55 | 190 | 4.3 | 8.7 | 0.00 | 0.00 | 0.00 | 52 | 1012.8 |
| 20260509042048 | 56 | 205 | 3.5 | 7.8 | 0.00 | 0.00 | 0.00 | 52 | 1012.8 |
| 20260509041047 | 56 | 205 | 4.3 | 7.8 | 0.00 | 0.00 | 0.00 | 52 | 1012.7 |
| 20260509040048 | 56 | 203 | 4.3 | 7.0 | 0.00 | 0.00 | 0.00 | 52 | 1012.8 |
| 20260509035047 | 56 | 203 | 2.6 | 5.2 | 0.00 | 0.00 | 0.00 | 52 | 1012.9 |
| 20260509034048 | 57 | 198 | 2.6 | 6.1 | 0.00 | 0.00 | 0.00 | 51 | 1012.9 |
| 20260509033047 | 57 | 189 | 3.5 | 7.8 | 0.00 | 0.00 | 0.00 | 50 | 1012.8 |
| 20260509032050 | 57 | 226 | 3.5 | 7.0 | 0.00 | 0.00 | 0.00 | 50 | 1012.8 |
| 20260509031050 | 57 | 197 | 3.5 | 7.8 | 0.00 | 0.00 | 0.00 | 50 | 1012.8 |
| 20260509030047 | 58 | 201 | 3.5 | 8.7 | 0.00 | 0.00 | 0.00 | 49 | 1012.9 |
| 20260509025047 | 58 | 206 | 4.3 | 7.0 | 0.00 | 0.00 | 0.00 | 49 | 1013.0 |
| 20260509024048 | 58 | 216 | 2.6 | 6.1 | 0.00 | 0.00 | 0.00 | 50 | 1013.0 |
| 20260509023047 | 58 | 195 | 3.5 | 6.1 | 0.00 | 0.00 | 0.00 | 50 | 1013.1 |
| 20260509022047 | 58 | 238 | 1.7 | 6.1 | 0.00 | 0.00 | 0.00 | 51 | 1013.2 |
| 20260509021048 | 58 | 225 | 1.7 | 7.0 | 0.00 | 0.00 | 0.00 | 50 | 1012.9 |